Time,TemperatureF,DewpointF,PressureIn,WindDirection,WindDirectionDegrees,WindSpeedMPH,WindSpeedGustMPH,Humidity,HourlyPrecipIn,Conditions,Clouds,dailyrainin,SoftwareType,DateUTC
2013-02-11 00:03:00,50.2,48.0,29.68,NE,48,2.0,11.0,93,0.00,,,0.00,weatherlink.com 1.10,2013-02-11 05:03:00,
2013-02-11 00:18:00,50.4,49.0,29.68,NNE,27,3.0,10.0,93,0.00,,,0.00,weatherlink.com 1.10,2013-02-11 05:18:00,
2013-02-11 00:33:00,50.5,48.0,29.68,NE,37,4.0,7.0,92,0.00,,,0.00,weatherlink.com 1.10,2013-02-11 05:33:00,
2013-02-11 00:48:00,50.7,49.0,29.68,ENE,57,2.0,7.0,92,0.00,,,0.00,weatherlink.com 1.10,2013-02-11 05:48:00,
2013-02-11 01:03:00,50.7,49.0,29.68,ENE,65,1.0,8.0,92,0.00,,,0.00,weatherlink.com 1.10,2013-02-11 06:03:00,
2013-02-11 01:19:00,50.8,48.0,29.67,NE,52,3.0,8.0,91,0.00,,,0.00,weatherlink.com 1.10,2013-02-11 06:19:00,
2013-02-11 01:34:00,50.8,48.0,29.67,NE,44,6.0,8.0,91,0.00,,,0.00,weatherlink.com 1.10,2013-02-11 06:34:00,
2013-02-11 01:48:00,50.6,48.0,29.67,NE,51,2.0,10.0,91,0.00,,,0.00,weatherlink.com 1.10,2013-02-11 06:48:00,
2013-02-11 02:03:00,50.4,48.0,29.68,NE,48,4.0,9.0,91,0.00,,,0.00,weatherlink.com 1.10,2013-02-11 07:03:00,
2013-02-11 02:18:00,50.0,47.0,29.68,ENE,57,6.0,7.0,90,0.00,,,0.00,weatherlink.com 1.10,2013-02-11 07:18:00,
2013-02-11 02:33:00,49.9,47.0,29.68,NE,46,9.0,12.0,90,0.00,,,0.00,weatherlink.com 1.10,2013-02-11 07:33:00,
2013-02-11 02:48:00,49.9,47.0,29.68,NNE,23,4.0,10.0,88,0.00,,,0.00,weatherlink.com 1.10,2013-02-11 07:48:00,
2013-02-11 03:04:00,49.7,46.0,29.68,NE,56,2.0,11.0,87,0.00,,,0.00,weatherlink.com 1.10,2013-02-11 08:04:00,
2013-02-11 03:19:00,49.6,46.0,29.68,NE,43,4.0,12.0,86,0.00,,,0.00,weatherlink.com 1.10,2013-02-11 08:19:00,
2013-02-11 03:34:00,49.5,45.0,29.67,NE,51,2.0,13.0,84,0.00,,,0.00,weatherlink.com 1.10,2013-02-11 08:34:00,
2013-02-11 03:49:00,49.5,42.0,29.68,ENE,61,4.0,16.0,76,0.00,,,0.00,weatherlink.com 1.10,2013-02-11 08:49:00,
2013-02-11 04:04:00,49.0,41.0,29.68,NE,41,3.0,9.0,73,0.00,,,0.00,weatherlink.com 1.10,2013-02-11 09:04:00,
2013-02-11 04:19:00,48.0,39.0,29.68,NNE,30,6.0,15.0,70,0.00,,,0.00,weatherlink.com 1.10,2013-02-11 09:19:00,
2013-02-11 04:34:00,46.8,38.0,29.69,NE,56,2.0,9.0,71,0.00,,,0.00,weatherlink.com 1.10,2013-02-11 09:34:00,
2013-02-11 04:49:00,46.2,38.0,29.71,NE,50,2.0,7.0,72,0.00,,,0.00,weatherlink.com 1.10,2013-02-11 09:49:00,
2013-02-11 05:04:00,43.7,36.0,29.72,East,96,4.0,12.0,73,0.00,,,0.00,weatherlink.com 1.10,2013-02-11 10:04:00,
2013-02-11 05:19:00,42.1,35.0,29.72,NNE,18,6.0,12.0,76,0.00,,,0.00,weatherlink.com 1.10,2013-02-11 10:19:00,
2013-02-11 05:34:00,41.1,34.0,29.73,ESE,120,2.0,10.0,76,0.00,,,0.00,weatherlink.com 1.10,2013-02-11 10:34:00,
2013-02-11 05:49:00,40.3,33.0,29.74,East,101,2.0,11.0,75,0.00,,,0.00,weatherlink.com 1.10,2013-02-11 10:49:00,
2013-02-11 06:04:00,39.9,33.0,29.75,ENE,71,2.0,11.0,75,0.00,,,0.00,weatherlink.com 1.10,2013-02-11 11:04:00,
2013-02-11 06:19:00,39.5,33.0,29.76,ENE,77,4.0,13.0,76,0.00,,,0.00,weatherlink.com 1.10,2013-02-11 11:19:00,
2013-02-11 06:34:00,39.5,33.0,29.76,ESE,113,7.0,11.0,76,0.00,,,0.00,weatherlink.com 1.10,2013-02-11 11:34:00,
2013-02-11 06:49:00,39.6,32.0,29.76,ESE,120,6.0,21.0,75,0.00,,,0.00,weatherlink.com 1.10,2013-02-11 11:49:00,
2013-02-11 07:04:00,39.2,32.0,29.77,ENE,65,5.0,14.0,74,0.00,,,0.00,weatherlink.com 1.10,2013-02-11 12:04:00,
2013-02-11 07:19:00,38.6,32.0,29.78,East,101,2.0,13.0,76,0.00,,,0.00,weatherlink.com 1.10,2013-02-11 12:19:00,
2013-02-11 07:34:00,37.7,31.0,29.79,East,79,2.0,12.0,77,0.00,,,0.00,weatherlink.com 1.10,2013-02-11 12:34:00,
2013-02-11 07:49:00,37.5,30.0,29.80,SE,134,2.0,10.0,75,0.00,,,0.00,weatherlink.com 1.10,2013-02-11 12:49:00,
2013-02-11 08:05:00,37.3,29.0,29.80,ENE,65,2.0,12.0,73,0.00,,,0.00,weatherlink.com 1.10,2013-02-11 13:05:00,
2013-02-11 08:20:00,37.2,29.0,29.80,ENE,63,2.0,11.0,73,0.00,,,0.00,weatherlink.com 1.10,2013-02-11 13:20:00,
2013-02-11 08:35:00,37.2,30.0,29.81,ENE,75,9.0,13.0,74,0.00,,,0.00,weatherlink.com 1.10,2013-02-11 13:35:00,
2013-02-11 08:50:00,37.2,30.0,29.81,NNE,13,2.0,13.0,74,0.00,,,0.00,weatherlink.com 1.10,2013-02-11 13:50:00,
2013-02-11 09:05:00,37.2,29.0,29.81,ENE,71,2.0,14.0,73,0.00,,,0.00,weatherlink.com 1.10,2013-02-11 14:05:00,
2013-02-11 09:20:00,37.1,30.0,29.82,NNE,29,9.0,15.0,74,0.00,,,0.00,weatherlink.com 1.10,2013-02-11 14:20:00,
2013-02-11 09:35:00,36.4,29.0,29.83,NNE,16,11.0,15.0,73,0.00,,,0.00,weatherlink.com 1.10,2013-02-11 14:35:00,
2013-02-11 09:50:00,36.2,28.0,29.84,ENE,65,1.0,15.0,73,0.00,,,0.00,weatherlink.com 1.10,2013-02-11 14:50:00,
2013-02-11 10:05:00,36.1,28.0,29.84,East,94,7.0,15.0,71,0.00,,,0.00,weatherlink.com 1.10,2013-02-11 15:05:00,
2013-02-11 10:35:00,36.1,28.0,29.85,SSE,166,3.0,10.0,72,0.00,,,0.00,weatherlink.com 1.10,2013-02-11 15:35:00,
2013-02-11 10:50:00,36.1,28.0,29.86,ENE,77,5.0,13.0,72,0.00,,,0.00,weatherlink.com 1.10,2013-02-11 15:50:00,
2013-02-11 11:05:00,35.8,27.0,29.87,ESE,105,15.0,16.0,71,0.00,,,0.00,weatherlink.com 1.10,2013-02-11 16:05:00,
2013-02-11 11:20:00,35.6,28.0,29.87,NNE,27,5.0,14.0,73,0.00,,,0.00,weatherlink.com 1.10,2013-02-11 16:20:00,
2013-02-11 11:35:00,35.6,28.0,29.88,SE,124,3.0,16.0,75,0.00,,,0.00,weatherlink.com 1.10,2013-02-11 16:35:00,
2013-02-11 11:50:00,35.6,29.0,29.88,ENE,72,2.0,15.0,76,0.00,,,0.00,weatherlink.com 1.10,2013-02-11 16:50:00,
2013-02-11 12:06:00,35.5,28.0,29.89,East,101,3.0,15.0,75,0.00,,,0.00,weatherlink.com 1.10,2013-02-11 17:06:00,
2013-02-11 12:20:00,35.5,28.0,29.89,East,96,1.0,13.0,74,0.00,,,0.00,weatherlink.com 1.10,2013-02-11 17:20:00,
2013-02-11 12:36:00,35.5,28.0,29.89,East,96,1.0,12.0,75,0.00,,,0.00,weatherlink.com 1.10,2013-02-11 17:36:00,
2013-02-11 12:50:00,35.7,27.0,29.89,ENE,59,3.0,13.0,72,0.00,,,0.00,weatherlink.com 1.10,2013-02-11 17:50:00,
2013-02-11 13:05:00,36.3,28.0,29.89,ESE,113,2.0,14.0,72,0.00,,,0.00,weatherlink.com 1.10,2013-02-11 18:05:00,
2013-02-11 13:21:00,36.7,28.0,29.89,ESE,119,2.0,15.0,71,0.00,,,0.00,weatherlink.com 1.10,2013-02-11 18:21:00,
2013-02-11 13:35:00,36.4,28.0,29.89,ESE,106,1.0,17.0,71,0.00,,,0.00,weatherlink.com 1.10,2013-02-11 18:35:00,
2013-02-11 13:50:00,35.9,28.0,29.89,East,101,4.0,14.0,73,0.00,,,0.00,weatherlink.com 1.10,2013-02-11 18:50:00,
2013-02-11 14:05:00,36.5,29.0,29.89,NE,46,5.0,10.0,73,0.00,,,0.00,weatherlink.com 1.10,2013-02-11 19:05:00,
2013-02-11 14:20:00,36.2,28.0,29.89,ESE,105,3.0,11.0,72,0.00,,,0.00,weatherlink.com 1.10,2013-02-11 19:20:00,
2013-02-11 14:35:00,36.0,28.0,29.90,NE,52,2.0,17.0,74,0.00,,,0.00,weatherlink.com 1.10,2013-02-11 19:35:00,
2013-02-11 14:50:00,36.1,28.0,29.90,ENE,65,4.0,13.0,73,0.00,,,0.00,weatherlink.com 1.10,2013-02-11 19:50:00,
2013-02-11 15:05:00,36.1,28.0,29.91,ENE,58,1.0,10.0,73,0.00,,,0.00,weatherlink.com 1.10,2013-02-11 20:05:00,
2013-02-11 15:21:00,36.0,28.0,29.92,ENE,69,3.0,20.0,73,0.00,,,0.00,weatherlink.com 1.10,2013-02-11 20:21:00,
2013-02-11 15:35:00,36.3,28.0,29.93,NE,43,5.0,12.0,73,0.00,,,0.00,weatherlink.com 1.10,2013-02-11 20:35:00,
2013-02-11 15:51:00,36.3,28.0,29.93,East,93,6.0,8.0,73,0.00,,,0.00,weatherlink.com 1.10,2013-02-11 20:51:00,
2013-02-11 16:06:00,36.3,28.0,29.93,East,93,9.0,11.0,73,0.00,,,0.00,weatherlink.com 1.10,2013-02-11 21:06:00,
2013-02-11 16:21:00,36.4,29.0,29.94,NE,54,4.0,9.0,74,0.00,,,0.00,weatherlink.com 1.10,2013-02-11 21:21:00,
2013-02-11 16:36:00,36.4,29.0,29.94,East,96,2.0,7.0,74,0.00,,,0.00,weatherlink.com 1.10,2013-02-11 21:36:00,
2013-02-11 16:51:00,36.5,29.0,29.94,East,81,1.0,8.0,75,0.00,,,0.00,weatherlink.com 1.10,2013-02-11 21:51:00,
2013-02-11 17:06:00,36.7,29.0,29.94,North,10,3.0,12.0,75,0.00,,,0.00,weatherlink.com 1.10,2013-02-11 22:06:00,
2013-02-11 17:21:00,36.8,30.0,29.95,East,90,3.0,9.0,76,0.00,,,0.00,weatherlink.com 1.10,2013-02-11 22:21:00,
2013-02-11 17:36:00,36.8,30.0,29.95,NE,54,3.0,12.0,77,0.00,,,0.00,weatherlink.com 1.10,2013-02-11 22:36:00,
2013-02-11 17:51:00,36.8,31.0,29.95,East,82,2.0,8.0,78,0.00,,,0.00,weatherlink.com 1.10,2013-02-11 22:51:00,
2013-02-11 18:06:00,37.0,30.0,29.95,ESE,122,1.0,11.0,77,0.00,,,0.00,weatherlink.com 1.10,2013-02-11 23:06:00,
2013-02-11 18:21:00,36.9,30.0,29.96,ENE,69,1.0,12.0,75,0.00,,,0.00,weatherlink.com 1.10,2013-02-11 23:21:00,
2013-02-11 18:36:00,36.2,29.0,29.96,NE,52,3.0,6.0,76,0.00,,,0.00,weatherlink.com 1.10,2013-02-11 23:36:00,
2013-02-11 18:51:00,35.7,29.0,29.97,East,89,1.0,5.0,77,0.00,,,0.00,weatherlink.com 1.10,2013-02-11 23:51:00,
2013-02-11 19:06:00,35.4,30.0,29.97,East,86,0.0,3.0,79,0.00,,,0.00,weatherlink.com 1.10,2013-02-12 00:06:00,
2013-02-11 19:21:00,35.3,30.0,29.98,ENE,72,0.0,5.0,80,0.00,,,0.00,weatherlink.com 1.10,2013-02-12 00:21:00,
2013-02-11 19:36:00,34.9,29.0,29.98,East,92,1.0,6.0,80,0.00,,,0.00,weatherlink.com 1.10,2013-02-12 00:36:00,
2013-02-11 19:51:00,34.9,30.0,29.99,East,81,0.0,4.0,81,0.00,,,0.00,weatherlink.com 1.10,2013-02-12 00:51:00,
2013-02-11 20:06:00,34.9,30.0,30.00,East,96,2.0,4.0,81,0.00,,,0.00,weatherlink.com 1.10,2013-02-12 01:06:00,
2013-02-11 20:21:00,34.6,29.0,30.00,East,96,0.0,3.0,81,0.00,,,0.00,weatherlink.com 1.10,2013-02-12 01:21:00,
2013-02-11 20:36:00,34.3,29.0,30.01,East,79,1.0,3.0,82,0.00,,,0.00,weatherlink.com 1.10,2013-02-12 01:36:00,
2013-02-11 20:51:00,34.1,30.0,30.01,ENE,77,0.0,4.0,83,0.00,,,0.00,weatherlink.com 1.10,2013-02-12 01:51:00,
2013-02-11 21:06:00,33.4,29.0,30.02,East,88,1.0,4.0,84,0.00,,,0.00,weatherlink.com 1.10,2013-02-12 02:06:00,
2013-02-11 21:21:00,32.4,28.0,30.02,East,98,1.0,4.0,85,0.00,,,0.00,weatherlink.com 1.10,2013-02-12 02:21:00,
2013-02-11 21:36:00,31.6,28.0,30.02,East,88,0.0,3.0,86,0.00,,,0.00,weatherlink.com 1.10,2013-02-12 02:36:00,
2013-02-11 21:51:00,31.3,28.0,30.02,East,89,0.0,3.0,87,0.00,,,0.00,weatherlink.com 1.10,2013-02-12 02:51:00,
2013-02-11 22:07:00,31.1,28.0,30.02,East,89,2.0,5.0,87,0.00,,,0.00,weatherlink.com 1.10,2013-02-12 03:07:00,
2013-02-11 22:21:00,31.2,28.0,30.02,East,84,0.0,5.0,87,0.00,,,0.00,weatherlink.com 1.10,2013-02-12 03:21:00,
2013-02-11 22:36:00,31.0,28.0,30.02,East,93,0.0,4.0,87,0.00,,,0.00,weatherlink.com 1.10,2013-02-12 03:36:00,
2013-02-11 22:51:00,31.0,28.0,30.03,ESE,109,2.0,5.0,87,0.00,,,0.00,weatherlink.com 1.10,2013-02-12 03:51:00,
2013-02-11 23:07:00,30.9,28.0,30.02,ESE,103,2.0,6.0,87,0.00,,,0.00,weatherlink.com 1.10,2013-02-12 04:07:00,
2013-02-11 23:21:00,30.8,27.0,30.03,East,87,0.0,6.0,87,0.00,,,0.00,weatherlink.com 1.10,2013-02-12 04:21:00,
2013-02-11 23:36:00,30.6,27.0,30.03,East,93,2.0,11.0,86,0.00,,,0.00,weatherlink.com 1.10,2013-02-12 04:36:00,
2013-02-11 23:52:00,30.5,27.0,30.03,East,98,2.0,7.0,87,0.00,,,0.00,weatherlink.com 1.10,2013-02-12 04:52:00,